Time,TemperatureF,DewpointF,PressureIn,WindDirection,WindDirectionDegrees,WindSpeedMPH,WindSpeedGustMPH,Humidity,HourlyPrecipIn,Conditions,Clouds,dailyrainin,SolarRadiationWatts/m^2,SoftwareType,DateUTC
2013-05-31 00:01:00,72.9,63.7,30.07,South,169,1.0,4.0,73,0.00,,,0.00,0.0,meteohub,2013-05-31 04:01:00,
2013-05-31 00:02:00,72.9,63.7,30.07,South,169,3.0,4.0,73,0.00,,,0.00,0.0,meteohub,2013-05-31 04:02:00,
2013-05-31 00:03:00,72.9,63.3,30.07,SSE,161,2.0,4.0,72,0.00,,,0.00,0.0,meteohub,2013-05-31 04:03:00,
2013-05-31 00:08:00,72.3,63.5,30.08,South,172,2.0,3.0,74,0.00,,,0.00,0.0,meteohub,2013-05-31 04:08:00,
2013-05-31 00:11:00,72.1,63.0,30.08,South,184,2.0,4.0,73,0.00,,,0.00,0.0,meteohub,2013-05-31 04:11:00,
2013-05-31 00:16:00,72.1,63.3,30.08,SSE,157,3.0,5.0,74,0.00,,,0.00,0.0,meteohub,2013-05-31 04:16:00,
2013-05-31 00:22:00,72.1,63.3,30.08,SE,138,2.0,6.0,74,0.00,,,0.00,0.0,meteohub,2013-05-31 04:22:00,
2013-05-31 00:27:00,72.3,63.5,30.08,SSE,160,4.0,6.0,74,0.00,,,0.00,0.0,meteohub,2013-05-31 04:27:00,
2013-05-31 00:32:00,72.3,63.5,30.07,SSE,168,3.0,6.0,74,0.00,,,0.00,0.0,meteohub,2013-05-31 04:32:00,
2013-05-31 00:37:00,72.5,63.7,30.08,SSE,158,4.0,6.0,74,0.00,,,0.00,0.0,meteohub,2013-05-31 04:37:00,
2013-05-31 00:42:00,72.7,63.9,30.07,SSE,167,4.0,7.0,74,0.00,,,0.00,0.0,meteohub,2013-05-31 04:42:00,
2013-05-31 00:47:00,72.9,63.7,30.08,SSE,166,3.0,7.0,73,0.00,,,0.00,0.0,meteohub,2013-05-31 04:47:00,
2013-05-31 00:52:00,73.0,63.9,30.08,South,171,3.0,9.0,73,0.00,,,0.00,0.0,meteohub,2013-05-31 04:52:00,
2013-05-31 00:57:00,73.0,63.9,30.07,WSW,247,3.0,9.0,73,0.00,,,0.00,0.0,meteohub,2013-05-31 04:57:00,
2013-05-31 01:02:00,73.0,63.9,30.08,SSE,163,5.0,9.0,73,0.00,,,0.00,0.0,meteohub,2013-05-31 05:02:00,
2013-05-31 01:07:00,73.0,63.9,30.08,South,183,3.0,7.0,73,0.00,,,0.00,0.0,meteohub,2013-05-31 05:07:00,
2013-05-31 01:12:00,73.0,64.2,30.07,SE,124,3.0,7.0,74,0.00,,,0.00,0.0,meteohub,2013-05-31 05:12:00,
2013-05-31 01:17:00,73.0,64.2,30.07,SSE,148,2.0,7.0,74,0.00,,,0.00,0.0,meteohub,2013-05-31 05:17:00,
2013-05-31 01:22:00,72.9,64.0,30.07,SE,137,5.0,7.0,74,0.00,,,0.00,0.0,meteohub,2013-05-31 05:22:00,
2013-05-31 01:27:00,72.7,64.2,30.08,SSE,167,2.0,6.0,75,0.00,,,0.00,0.0,meteohub,2013-05-31 05:27:00,
2013-05-31 01:32:00,72.5,64.0,30.07,SSE,160,6.0,6.0,75,0.00,,,0.00,0.0,meteohub,2013-05-31 05:32:00,
2013-05-31 01:37:00,72.3,64.4,30.07,South,175,1.0,7.0,76,0.00,,,0.00,0.0,meteohub,2013-05-31 05:37:00,
2013-05-31 01:42:00,72.3,64.4,30.07,South,191,3.0,7.0,76,0.00,,,0.00,0.0,meteohub,2013-05-31 05:42:00,
2013-05-31 01:47:00,72.3,64.4,30.07,SSE,150,2.0,7.0,76,0.00,,,0.00,0.0,meteohub,2013-05-31 05:47:00,
2013-05-31 01:52:00,72.1,64.6,30.07,South,181,2.0,5.0,77,0.00,,,0.00,0.0,meteohub,2013-05-31 05:52:00,
2013-05-31 01:57:00,72.0,64.4,30.07,SE,144,2.0,6.0,77,0.00,,,0.00,0.0,meteohub,2013-05-31 05:57:00,
2013-05-31 02:02:00,72.0,64.8,30.07,SSE,161,2.0,6.0,78,0.00,,,0.00,0.0,meteohub,2013-05-31 06:02:00,
2013-05-31 02:07:00,71.8,64.6,30.07,SSE,150,0.0,6.0,78,0.00,,,0.00,0.0,meteohub,2013-05-31 06:07:00,
2013-05-31 02:12:00,71.6,64.4,30.06,SSE,159,1.0,6.0,78,0.00,,,0.00,0.0,meteohub,2013-05-31 06:12:00,
2013-05-31 02:17:00,71.4,64.6,30.06,SSE,152,1.0,4.0,79,0.00,,,0.00,0.0,meteohub,2013-05-31 06:17:00,
2013-05-31 02:22:00,71.2,64.4,30.06,SE,145,3.0,5.0,79,0.00,,,0.00,0.0,meteohub,2013-05-31 06:22:00,
2013-05-31 02:27:00,71.1,64.6,30.06,SSE,154,1.0,5.0,80,0.00,,,0.00,0.0,meteohub,2013-05-31 06:27:00,
2013-05-31 02:32:00,70.9,64.4,30.06,South,174,3.0,5.0,80,0.00,,,0.00,0.0,meteohub,2013-05-31 06:32:00,
2013-05-31 02:37:00,70.7,64.2,30.06,South,179,3.0,4.0,80,0.00,,,0.00,0.0,meteohub,2013-05-31 06:37:00,
2013-05-31 02:42:00,70.5,64.4,30.06,South,179,3.0,6.0,81,0.00,,,0.00,0.0,meteohub,2013-05-31 06:42:00,
2013-05-31 02:47:00,70.5,64.4,30.07,SSE,167,3.0,6.0,81,0.00,,,0.00,0.0,meteohub,2013-05-31 06:47:00,
2013-05-31 02:52:00,70.3,64.2,30.07,SSE,159,3.0,6.0,81,0.00,,,0.00,0.0,meteohub,2013-05-31 06:52:00,
2013-05-31 02:57:00,70.3,64.2,30.07,SSE,167,6.0,6.0,81,0.00,,,0.00,0.0,meteohub,2013-05-31 06:57:00,
2013-05-31 03:02:00,70.3,64.2,30.07,SSE,160,2.0,6.0,81,0.00,,,0.00,0.0,meteohub,2013-05-31 07:02:00,
2013-05-31 03:07:00,70.3,64.2,30.06,South,189,3.0,6.0,81,0.00,,,0.00,0.0,meteohub,2013-05-31 07:07:00,
2013-05-31 03:12:00,70.3,64.2,30.06,South,173,2.0,8.0,81,0.00,,,0.00,0.0,meteohub,2013-05-31 07:12:00,
2013-05-31 03:17:00,70.5,64.4,30.06,South,190,4.0,8.0,81,0.00,,,0.00,0.0,meteohub,2013-05-31 07:17:00,
2013-05-31 03:22:00,70.5,64.0,30.06,SSE,156,3.0,8.0,80,0.00,,,0.00,0.0,meteohub,2013-05-31 07:22:00,
2013-05-31 03:27:00,70.7,64.2,30.06,South,187,3.0,8.0,80,0.00,,,0.00,0.0,meteohub,2013-05-31 07:27:00,
2013-05-31 03:32:00,70.7,64.2,30.06,SSE,165,1.0,8.0,80,0.00,,,0.00,0.0,meteohub,2013-05-31 07:32:00,
2013-05-31 03:37:00,70.7,64.2,30.06,South,177,6.0,8.0,80,0.00,,,0.00,0.0,meteohub,2013-05-31 07:37:00,
2013-05-31 03:42:00,70.7,64.2,30.05,SSE,149,4.0,9.0,80,0.00,,,0.00,0.0,meteohub,2013-05-31 07:42:00,
2013-05-31 03:47:00,70.7,64.2,30.05,SSE,154,4.0,9.0,80,0.00,,,0.00,0.0,meteohub,2013-05-31 07:47:00,
2013-05-31 03:52:00,70.9,64.4,30.05,SSW,193,3.0,9.0,80,0.00,,,0.00,0.0,meteohub,2013-05-31 07:52:00,
2013-05-31 03:57:00,70.7,64.2,30.05,South,191,2.0,9.0,80,0.00,,,0.00,0.0,meteohub,2013-05-31 07:57:00,
2013-05-31 04:02:00,70.5,64.0,30.05,SSE,157,5.0,9.0,80,0.00,,,0.00,0.0,meteohub,2013-05-31 08:02:00,
2013-05-31 04:07:00,70.5,64.0,30.04,SSE,168,4.0,9.0,80,0.00,,,0.00,0.0,meteohub,2013-05-31 08:07:00,
2013-05-31 04:12:00,70.3,64.2,30.04,SSE,157,3.0,7.0,81,0.00,,,0.00,0.0,meteohub,2013-05-31 08:12:00,
2013-05-31 04:17:00,70.3,64.2,30.04,SSE,154,5.0,7.0,81,0.00,,,0.00,0.0,meteohub,2013-05-31 08:17:00,
2013-05-31 04:22:00,70.3,64.2,30.04,SE,146,5.0,7.0,81,0.00,,,0.00,0.0,meteohub,2013-05-31 08:22:00,
2013-05-31 04:27:00,70.2,64.0,30.04,South,182,3.0,9.0,81,0.00,,,0.00,0.0,meteohub,2013-05-31 08:27:00,
2013-05-31 04:32:00,70.2,64.0,30.04,SSE,161,2.0,9.0,81,0.00,,,0.00,0.0,meteohub,2013-05-31 08:32:00,
2013-05-31 04:37:00,70.3,64.2,30.04,SSE,165,3.0,8.0,81,0.00,,,0.00,0.0,meteohub,2013-05-31 08:37:00,
2013-05-31 04:42:00,70.2,64.0,30.04,South,171,3.0,8.0,81,0.00,,,0.00,0.0,meteohub,2013-05-31 08:42:00,
2013-05-31 04:47:00,70.3,64.2,30.04,WSW,248,5.0,9.0,81,0.00,,,0.00,0.0,meteohub,2013-05-31 08:47:00,
2013-05-31 04:52:00,70.3,64.2,30.04,South,177,4.0,10.0,81,0.00,,,0.00,0.0,meteohub,2013-05-31 08:52:00,
2013-05-31 04:57:00,70.3,64.2,30.04,SSE,154,3.0,10.0,81,0.00,,,0.00,0.0,meteohub,2013-05-31 08:57:00,
2013-05-31 05:03:00,70.3,64.2,30.04,South,179,5.0,10.0,81,0.00,,,0.00,0.0,meteohub,2013-05-31 09:03:00,
2013-05-31 05:08:00,70.3,64.2,30.04,SSE,158,3.0,10.0,81,0.00,,,0.00,0.0,meteohub,2013-05-31 09:08:00,
2013-05-31 05:13:00,70.3,64.2,30.04,SW,232,2.0,10.0,81,0.00,,,0.00,0.0,meteohub,2013-05-31 09:13:00,
2013-05-31 05:18:00,70.3,64.2,30.04,SSE,165,4.0,10.0,81,0.00,,,0.00,0.0,meteohub,2013-05-31 09:18:00,
2013-05-31 05:23:00,70.2,64.0,30.04,South,182,5.0,8.0,81,0.00,,,0.00,0.0,meteohub,2013-05-31 09:23:00,
2013-05-31 05:28:00,70.2,63.7,30.04,SSE,163,6.0,9.0,80,0.00,,,0.00,0.0,meteohub,2013-05-31 09:28:00,
2013-05-31 05:33:00,70.2,64.0,30.04,SSW,200,6.0,9.0,81,0.00,,,0.00,0.0,meteohub,2013-05-31 09:33:00,
2013-05-31 05:38:00,70.2,63.7,30.04,South,170,4.0,9.0,80,0.00,,,0.00,0.0,meteohub,2013-05-31 09:38:00,
2013-05-31 05:43:00,70.2,63.7,30.04,SSE,159,5.0,8.0,80,0.00,,,0.00,0.0,meteohub,2013-05-31 09:43:00,
2013-05-31 05:48:00,70.2,63.7,30.05,South,174,4.0,8.0,80,0.00,,,0.00,0.0,meteohub,2013-05-31 09:48:00,
2013-05-31 05:53:00,70.3,63.9,30.05,SSW,199,2.0,8.0,80,0.00,,,0.00,0.0,meteohub,2013-05-31 09:53:00,
2013-05-31 05:58:00,70.5,63.7,30.05,South,178,2.0,8.0,79,0.00,,,0.00,0.0,meteohub,2013-05-31 09:58:00,
2013-05-31 06:03:00,70.9,64.0,30.05,South,179,4.0,11.0,79,0.00,,,0.00,0.0,meteohub,2013-05-31 10:03:00,
2013-05-31 06:08:00,70.9,63.7,30.05,SSE,148,5.0,11.0,78,0.00,,,0.00,0.0,meteohub,2013-05-31 10:08:00,
2013-05-31 06:13:00,71.1,63.9,30.05,SSE,152,4.0,11.0,78,0.00,,,0.00,5.0,meteohub,2013-05-31 10:13:00,
2013-05-31 06:19:00,71.1,63.5,30.05,SE,127,2.0,10.0,77,0.00,,,0.00,7.0,meteohub,2013-05-31 10:19:00,
2013-05-31 06:24:00,71.1,63.5,30.05,South,172,8.0,9.0,77,0.00,,,0.00,11.0,meteohub,2013-05-31 10:24:00,
2013-05-31 06:29:00,71.1,63.5,30.05,South,176,4.0,10.0,77,0.00,,,0.00,19.0,meteohub,2013-05-31 10:29:00,
2013-05-31 06:34:00,71.1,63.5,30.05,South,188,3.0,10.0,77,0.00,,,0.00,28.0,meteohub,2013-05-31 10:34:00,
2013-05-31 06:39:00,71.1,63.5,30.05,SSE,165,7.0,10.0,77,0.00,,,0.00,37.0,meteohub,2013-05-31 10:39:00,
2013-05-31 06:44:00,71.2,63.3,30.05,South,185,7.0,10.0,76,0.00,,,0.00,40.0,meteohub,2013-05-31 10:44:00,
2013-05-31 06:49:00,71.2,63.7,30.05,SSE,156,1.0,10.0,77,0.00,,,0.00,44.0,meteohub,2013-05-31 10:49:00,
2013-05-31 06:54:00,71.2,63.7,30.05,SSE,148,6.0,11.0,77,0.00,,,0.00,53.0,meteohub,2013-05-31 10:54:00,
2013-05-31 06:59:00,71.2,63.7,30.05,SSE,153,6.0,11.0,77,0.00,,,0.00,56.0,meteohub,2013-05-31 10:59:00,
2013-05-31 07:04:00,71.2,63.3,30.05,SW,219,6.0,12.0,76,0.00,,,0.00,81.0,meteohub,2013-05-31 11:04:00,
2013-05-31 07:10:00,71.4,63.5,30.05,SSE,165,6.0,12.0,76,0.00,,,0.00,91.0,meteohub,2013-05-31 11:10:00,
2013-05-31 07:15:00,71.6,64.0,30.05,SE,142,5.0,12.0,77,0.00,,,0.00,98.0,meteohub,2013-05-31 11:15:00,
2013-05-31 07:20:00,71.8,63.9,30.05,ESE,121,4.0,12.0,76,0.00,,,0.00,88.0,meteohub,2013-05-31 11:20:00,
2013-05-31 07:25:00,72.0,63.7,30.05,SSE,153,5.0,12.0,75,0.00,,,0.00,81.0,meteohub,2013-05-31 11:25:00,
2013-05-31 07:30:00,72.0,63.7,30.05,SW,235,4.0,12.0,75,0.00,,,0.00,76.0,meteohub,2013-05-31 11:30:00,
2013-05-31 07:35:00,72.1,63.9,30.06,South,177,6.0,13.0,75,0.00,,,0.00,95.0,meteohub,2013-05-31 11:35:00,
2013-05-31 07:40:00,72.1,63.9,30.06,SW,224,10.0,15.0,75,0.00,,,0.00,114.0,meteohub,2013-05-31 11:40:00,
2013-05-31 07:45:00,72.3,63.9,30.06,SSE,157,9.0,15.0,75,0.00,,,0.00,88.0,meteohub,2013-05-31 11:45:00,
2013-05-31 07:50:00,72.3,63.9,30.06,SSE,148,8.0,15.0,75,0.00,,,0.00,81.0,meteohub,2013-05-31 11:50:00,
2013-05-31 07:55:00,72.3,63.9,30.06,SSE,162,6.0,13.0,75,0.00,,,0.00,91.0,meteohub,2013-05-31 11:55:00,
2013-05-31 08:01:00,72.3,63.9,30.06,NW,311,5.0,13.0,75,0.00,,,0.00,102.0,meteohub,2013-05-31 12:01:00,
2013-05-31 08:06:00,72.3,63.5,30.06,South,172,12.0,13.0,74,0.00,,,0.00,107.0,meteohub,2013-05-31 12:06:00,
2013-05-31 08:11:00,72.3,63.5,30.06,SE,146,6.0,13.0,74,0.00,,,0.00,97.0,meteohub,2013-05-31 12:11:00,
2013-05-31 08:16:00,72.5,64.0,30.06,South,174,6.0,13.0,75,0.00,,,0.00,137.0,meteohub,2013-05-31 12:16:00,
2013-05-31 08:21:00,72.7,64.2,30.07,SSW,210,5.0,13.0,75,0.00,,,0.00,111.0,meteohub,2013-05-31 12:21:00,
2013-05-31 08:26:00,72.7,64.2,30.07,SSE,150,3.0,9.0,75,0.00,,,0.00,46.0,meteohub,2013-05-31 12:26:00,
2013-05-31 08:31:00,72.7,63.9,30.07,SE,145,5.0,11.0,74,0.00,,,0.00,118.0,meteohub,2013-05-31 12:31:00,
2013-05-31 08:36:00,72.7,63.9,30.07,SSE,162,2.0,11.0,74,0.00,,,0.00,116.0,meteohub,2013-05-31 12:36:00,
2013-05-31 08:41:00,72.7,64.2,30.07,SSE,158,6.0,14.0,75,0.00,,,0.00,137.0,meteohub,2013-05-31 12:41:00,
2013-05-31 08:46:00,72.9,64.4,30.07,SSE,168,4.0,14.0,75,0.00,,,0.00,174.0,meteohub,2013-05-31 12:46:00,
2013-05-31 08:51:00,72.9,64.4,30.07,South,171,6.0,10.0,75,0.00,,,0.00,193.0,meteohub,2013-05-31 12:51:00,
2013-05-31 08:56:00,73.4,64.9,30.07,SSW,194,5.0,9.0,75,0.00,,,0.00,512.0,meteohub,2013-05-31 12:56:00,
2013-05-31 09:01:00,74.3,65.5,30.07,WSW,240,4.0,13.0,74,0.00,,,0.00,204.0,meteohub,2013-05-31 13:01:00,
2013-05-31 09:06:00,74.5,64.9,30.07,South,177,9.0,13.0,72,0.00,,,0.00,207.0,meteohub,2013-05-31 13:06:00,
2013-05-31 09:11:00,74.8,65.1,30.07,SSE,155,8.0,12.0,72,0.00,,,0.00,531.0,meteohub,2013-05-31 13:11:00,
2013-05-31 09:17:00,75.6,65.8,30.06,SSE,165,4.0,12.0,72,0.00,,,0.00,494.0,meteohub,2013-05-31 13:17:00,
2013-05-31 09:22:00,76.3,66.2,30.06,SE,139,5.0,12.0,71,0.00,,,0.00,420.0,meteohub,2013-05-31 13:22:00,
2013-05-31 09:27:00,76.3,65.8,30.07,West,269,8.0,13.0,70,0.00,,,0.00,512.0,meteohub,2013-05-31 13:27:00,
2013-05-31 09:32:00,76.1,65.7,30.06,SSW,205,2.0,15.0,70,0.00,,,0.00,524.0,meteohub,2013-05-31 13:32:00,
2013-05-31 09:37:00,76.6,66.2,30.06,SSE,156,5.0,15.0,70,0.00,,,0.00,548.0,meteohub,2013-05-31 13:37:00,
2013-05-31 09:42:00,77.4,66.4,30.06,South,190,4.0,15.0,69,0.00,,,0.00,582.0,meteohub,2013-05-31 13:42:00,
2013-05-31 09:47:00,77.4,66.0,30.06,South,170,13.0,16.0,68,0.00,,,0.00,617.0,meteohub,2013-05-31 13:47:00,
2013-05-31 09:52:00,77.2,65.8,30.06,South,171,11.0,19.0,68,0.00,,,0.00,399.0,meteohub,2013-05-31 13:52:00,
2013-05-31 09:57:00,77.2,66.2,30.06,SSW,205,7.0,19.0,69,0.00,,,0.00,541.0,meteohub,2013-05-31 13:57:00,
2013-05-31 10:02:00,76.8,65.8,30.06,SW,231,8.0,19.0,69,0.00,,,0.00,301.0,meteohub,2013-05-31 14:02:00,
2013-05-31 10:07:00,76.5,65.5,30.06,SSW,200,9.0,15.0,69,0.00,,,0.00,279.0,meteohub,2013-05-31 14:07:00,
2013-05-31 10:12:00,76.5,66.0,30.06,SSE,148,15.0,15.0,70,0.00,,,0.00,279.0,meteohub,2013-05-31 14:12:00,
2013-05-31 10:17:00,76.5,66.0,30.06,SW,222,5.0,16.0,70,0.00,,,0.00,352.0,meteohub,2013-05-31 14:17:00,
2013-05-31 10:22:00,76.8,66.2,30.06,SE,146,5.0,16.0,70,0.00,,,0.00,343.0,meteohub,2013-05-31 14:22:00,
2013-05-31 10:27:00,77.2,66.2,30.05,SW,221,8.0,17.0,69,0.00,,,0.00,360.0,meteohub,2013-05-31 14:27:00,
2013-05-31 10:32:00,77.7,66.7,30.05,South,178,11.0,17.0,69,0.00,,,0.00,789.0,meteohub,2013-05-31 14:32:00,
2013-05-31 10:37:00,78.3,66.7,30.05,South,179,12.0,17.0,68,0.00,,,0.00,234.0,meteohub,2013-05-31 14:37:00,
2013-05-31 10:42:00,78.1,66.7,30.05,SSW,210,2.0,17.0,68,0.00,,,0.00,698.0,meteohub,2013-05-31 14:42:00,
2013-05-31 10:47:00,79.2,67.3,30.05,SSW,198,5.0,17.0,67,0.00,,,0.00,664.0,meteohub,2013-05-31 14:47:00,
2013-05-31 10:52:00,79.2,66.7,30.04,SSE,162,13.0,17.0,66,0.00,,,0.00,573.0,meteohub,2013-05-31 14:52:00,
2013-05-31 10:57:00,78.8,66.6,30.05,SE,143,3.0,20.0,66,0.00,,,0.00,580.0,meteohub,2013-05-31 14:57:00,
2013-05-31 11:02:00,79.0,67.5,30.05,SE,134,9.0,20.0,68,0.00,,,0.00,446.0,meteohub,2013-05-31 15:02:00,
2013-05-31 11:07:00,78.8,66.6,30.06,SW,219,4.0,20.0,66,0.00,,,0.00,492.0,meteohub,2013-05-31 15:07:00,
2013-05-31 11:13:00,78.6,65.8,30.05,South,174,6.0,15.0,65,0.00,,,0.00,418.0,meteohub,2013-05-31 15:13:00,
2013-05-31 11:18:00,79.5,68.0,30.04,SSE,153,3.0,17.0,68,0.00,,,0.00,849.0,meteohub,2013-05-31 15:18:00,
2013-05-31 11:23:00,80.1,66.7,30.04,SE,129,8.0,17.0,64,0.00,,,0.00,329.0,meteohub,2013-05-31 15:23:00,
2013-05-31 11:28:00,79.9,68.0,30.04,SSE,163,10.0,19.0,67,0.00,,,0.00,712.0,meteohub,2013-05-31 15:28:00,
2013-05-31 11:33:00,79.5,67.1,30.04,South,186,10.0,19.0,66,0.00,,,0.00,668.0,meteohub,2013-05-31 15:33:00,
2013-05-31 11:38:00,79.9,66.6,30.04,SSE,161,8.0,19.0,64,0.00,,,0.00,696.0,meteohub,2013-05-31 15:38:00,
2013-05-31 11:43:00,80.4,67.1,30.04,WSW,254,9.0,19.0,64,0.00,,,0.00,721.0,meteohub,2013-05-31 15:43:00,
2013-05-31 11:48:00,80.8,66.0,30.04,South,190,6.0,19.0,61,0.00,,,0.00,775.0,meteohub,2013-05-31 15:48:00,
2013-05-31 11:53:00,81.0,65.8,30.04,SSE,150,11.0,19.0,60,0.00,,,0.00,807.0,meteohub,2013-05-31 15:53:00,
2013-05-31 11:58:00,81.3,66.6,30.03,South,187,10.0,24.0,61,0.00,,,0.00,710.0,meteohub,2013-05-31 15:58:00,
2013-05-31 12:03:00,81.0,65.3,30.03,SSE,167,7.0,24.0,59,0.00,,,0.00,686.0,meteohub,2013-05-31 16:03:00,
2013-05-31 12:08:00,81.0,66.2,30.03,SW,223,7.0,24.0,61,0.00,,,0.00,684.0,meteohub,2013-05-31 16:08:00,
2013-05-31 12:13:00,81.0,66.7,30.03,SE,134,5.0,17.0,62,0.00,,,0.00,664.0,meteohub,2013-05-31 16:13:00,
2013-05-31 12:19:00,81.1,66.0,30.03,SSE,162,9.0,20.0,60,0.00,,,0.00,687.0,meteohub,2013-05-31 16:19:00,
2013-05-31 12:24:00,81.1,65.5,30.03,SW,226,12.0,20.0,59,0.00,,,0.00,712.0,meteohub,2013-05-31 16:24:00,
2013-05-31 12:29:00,81.1,66.0,30.03,SSW,200,4.0,20.0,60,0.00,,,0.00,707.0,meteohub,2013-05-31 16:29:00,
2013-05-31 12:34:00,81.3,66.6,30.02,SSW,205,3.0,19.0,61,0.00,,,0.00,715.0,meteohub,2013-05-31 16:34:00,
2013-05-31 12:39:00,81.9,68.9,30.02,SE,142,8.0,19.0,65,0.00,,,0.00,659.0,meteohub,2013-05-31 16:39:00,
2013-05-31 12:44:00,81.7,66.4,30.02,SSE,162,8.0,16.0,60,0.00,,,0.00,631.0,meteohub,2013-05-31 16:44:00,
2013-05-31 12:49:00,81.1,66.4,30.02,South,183,6.0,16.0,61,0.00,,,0.00,705.0,meteohub,2013-05-31 16:49:00,
2013-05-31 12:54:00,81.1,66.9,30.02,WSW,241,5.0,18.0,62,0.00,,,0.00,517.0,meteohub,2013-05-31 16:54:00,
2013-05-31 12:59:00,81.5,67.6,30.01,SW,228,4.0,18.0,63,0.00,,,0.00,547.0,meteohub,2013-05-31 16:59:00,
2013-05-31 13:04:00,81.9,66.6,30.02,SE,140,9.0,18.0,60,0.00,,,0.00,1016.0,meteohub,2013-05-31 17:04:00,
2013-05-31 13:09:00,82.6,68.2,30.01,SSW,200,8.0,20.0,62,0.00,,,0.00,807.0,meteohub,2013-05-31 17:09:00,
2013-05-31 13:14:00,82.8,66.6,30.01,South,173,5.0,20.0,58,0.00,,,0.00,856.0,meteohub,2013-05-31 17:14:00,
2013-05-31 13:20:00,82.9,66.6,30.00,SSE,154,8.0,20.0,58,0.00,,,0.00,598.0,meteohub,2013-05-31 17:20:00,
2013-05-31 13:25:00,82.6,66.7,30.00,South,183,8.0,19.0,59,0.00,,,0.00,707.0,meteohub,2013-05-31 17:25:00,
2013-05-31 13:30:00,82.9,67.6,30.00,West,268,4.0,19.0,60,0.00,,,0.00,1027.0,meteohub,2013-05-31 17:30:00,
2013-05-31 13:35:00,83.5,66.6,30.00,SW,219,11.0,19.0,57,0.00,,,0.00,482.0,meteohub,2013-05-31 17:35:00,
2013-05-31 13:40:00,83.3,67.5,30.01,SSE,164,11.0,19.0,59,0.00,,,0.00,870.0,meteohub,2013-05-31 17:40:00,
2013-05-31 13:45:00,82.6,66.7,30.00,SSE,161,4.0,18.0,59,0.00,,,0.00,492.0,meteohub,2013-05-31 17:45:00,
2013-05-31 13:50:00,82.2,67.5,30.01,ESE,115,11.0,18.0,61,0.00,,,0.00,598.0,meteohub,2013-05-31 17:50:00,
2013-05-31 13:55:00,82.4,68.5,30.00,SSW,192,2.0,18.0,63,0.00,,,0.00,547.0,meteohub,2013-05-31 17:55:00,
2013-05-31 14:00:00,82.8,66.9,30.00,South,177,7.0,20.0,59,0.00,,,0.00,476.0,meteohub,2013-05-31 18:00:00,
2013-05-31 14:05:00,82.8,68.4,30.00,SSE,159,8.0,20.0,62,0.00,,,0.00,786.0,meteohub,2013-05-31 18:05:00,
2013-05-31 14:10:00,82.9,67.1,29.99,SSE,156,6.0,17.0,59,0.00,,,0.00,561.0,meteohub,2013-05-31 18:10:00,
2013-05-31 14:15:00,82.6,67.8,29.99,SSE,155,6.0,17.0,61,0.00,,,0.00,536.0,meteohub,2013-05-31 18:15:00,
2013-05-31 14:20:00,82.8,68.9,29.99,SW,232,10.0,16.0,63,0.00,,,0.00,434.0,meteohub,2013-05-31 18:20:00,
2013-05-31 14:26:00,82.6,67.3,29.99,SSE,161,11.0,17.0,60,0.00,,,0.00,390.0,meteohub,2013-05-31 18:26:00,
2013-05-31 14:31:00,82.0,67.6,29.99,NW,312,5.0,17.0,62,0.00,,,0.00,195.0,meteohub,2013-05-31 18:31:00,
2013-05-31 14:36:00,81.5,67.3,29.99,SW,215,4.0,17.0,62,0.00,,,0.00,179.0,meteohub,2013-05-31 18:36:00,
2013-05-31 14:41:00,81.1,67.3,29.99,SE,133,3.0,15.0,63,0.00,,,0.00,285.0,meteohub,2013-05-31 18:41:00,
2013-05-31 14:46:00,81.1,67.8,29.99,South,181,7.0,14.0,64,0.00,,,0.00,260.0,meteohub,2013-05-31 18:46:00,
2013-05-31 14:51:00,81.3,67.5,29.98,SSW,210,3.0,14.0,63,0.00,,,0.00,313.0,meteohub,2013-05-31 18:51:00,
2013-05-31 14:56:00,81.3,67.5,29.98,South,178,6.0,14.0,63,0.00,,,0.00,334.0,meteohub,2013-05-31 18:56:00,
2013-05-31 15:01:00,81.5,67.3,29.98,SSE,152,2.0,13.0,62,0.00,,,0.00,425.0,meteohub,2013-05-31 19:01:00,
2013-05-31 15:06:00,82.0,67.6,29.97,SSE,152,5.0,13.0,62,0.00,,,0.00,599.0,meteohub,2013-05-31 19:06:00,
2013-05-31 15:11:00,82.8,68.0,29.97,SW,215,9.0,13.0,61,0.00,,,0.00,580.0,meteohub,2013-05-31 19:11:00,
2013-05-31 15:16:00,82.9,67.6,29.97,South,183,7.0,12.0,60,0.00,,,0.00,504.0,meteohub,2013-05-31 19:16:00,
2013-05-31 15:21:00,82.6,66.7,29.97,SSW,200,9.0,13.0,59,0.00,,,0.00,441.0,meteohub,2013-05-31 19:21:00,
2013-05-31 15:27:00,82.0,66.7,29.97,SSE,156,11.0,14.0,60,0.00,,,0.00,408.0,meteohub,2013-05-31 19:27:00,
2013-05-31 15:32:00,82.0,67.3,29.97,SSE,152,14.0,17.0,61,0.00,,,0.00,287.0,meteohub,2013-05-31 19:32:00,
2013-05-31 15:37:00,81.7,67.5,29.97,South,175,5.0,18.0,62,0.00,,,0.00,216.0,meteohub,2013-05-31 19:37:00,
2013-05-31 15:42:00,81.3,67.1,29.98,SSW,205,8.0,18.0,62,0.00,,,0.00,253.0,meteohub,2013-05-31 19:42:00,
2013-05-31 15:47:00,81.1,67.3,29.98,SE,146,10.0,18.0,63,0.00,,,0.00,171.0,meteohub,2013-05-31 19:47:00,
2013-05-31 15:52:00,81.1,66.9,29.97,SSE,158,9.0,14.0,62,0.00,,,0.00,135.0,meteohub,2013-05-31 19:52:00,
2013-05-31 15:57:00,81.0,68.0,29.97,SE,144,6.0,14.0,65,0.00,,,0.00,120.0,meteohub,2013-05-31 19:57:00,
2013-05-31 16:02:00,79.9,69.3,29.98,SE,131,3.0,14.0,70,0.00,,,0.00,142.0,meteohub,2013-05-31 20:02:00,
2013-05-31 16:07:00,78.3,68.9,29.97,WSW,244,8.0,16.0,73,0.02,,,0.02,100.0,meteohub,2013-05-31 20:07:00,
2013-05-31 16:12:00,76.6,68.9,29.98,SW,215,4.0,16.0,77,0.02,,,0.02,63.0,meteohub,2013-05-31 20:12:00,
2013-05-31 16:17:00,75.7,69.1,29.99,SSW,197,1.0,9.0,80,0.02,,,0.02,28.0,meteohub,2013-05-31 20:17:00,
2013-05-31 16:22:00,74.7,68.7,30.01,SE,146,15.0,15.0,82,0.03,,,0.03,12.0,meteohub,2013-05-31 20:22:00,
2013-05-31 16:27:00,71.2,65.5,30.02,SW,226,10.0,27.0,82,0.23,,,0.06,14.0,meteohub,2013-05-31 20:27:00,
2013-05-31 16:32:00,69.6,65.7,30.03,SW,236,11.0,27.0,87,0.24,,,0.24,16.0,meteohub,2013-05-31 20:32:00,
2013-05-31 16:37:00,68.7,64.9,30.02,West,281,2.0,27.0,88,0.25,,,0.25,19.0,meteohub,2013-05-31 20:37:00,
2013-05-31 16:43:00,68.4,64.9,30.03,South,169,2.0,24.0,89,0.25,,,0.25,21.0,meteohub,2013-05-31 20:43:00,
2013-05-31 16:48:00,67.8,64.8,30.03,SSE,159,6.0,16.0,90,0.26,,,0.26,21.0,meteohub,2013-05-31 20:48:00,
2013-05-31 16:53:00,67.6,65.3,30.03,SSE,156,4.0,11.0,92,0.27,,,0.27,18.0,meteohub,2013-05-31 20:53:00,
2013-05-31 16:58:00,67.5,65.3,30.03,SSE,159,4.0,12.0,93,0.28,,,0.28,16.0,meteohub,2013-05-31 20:58:00,
2013-05-31 17:03:00,67.6,65.8,30.03,SSW,198,6.0,12.0,94,0.28,,,0.29,16.0,meteohub,2013-05-31 21:03:00,
2013-05-31 17:08:00,67.6,65.8,30.02,South,178,5.0,11.0,94,0.28,,,0.30,23.0,meteohub,2013-05-31 21:08:00,
2013-05-31 17:13:00,67.8,66.0,30.02,SE,139,2.0,11.0,94,0.28,,,0.30,39.0,meteohub,2013-05-31 21:13:00,
2013-05-31 17:18:00,68.2,66.4,30.02,South,190,3.0,10.0,94,0.29,,,0.31,60.0,meteohub,2013-05-31 21:18:00,
2013-05-31 17:23:00,68.4,66.6,30.03,SSE,161,4.0,10.0,94,0.28,,,0.31,84.0,meteohub,2013-05-31 21:23:00,
2013-05-31 17:28:00,68.5,67.1,30.03,SSE,154,5.0,10.0,95,0.08,,,0.31,105.0,meteohub,2013-05-31 21:28:00,
2013-05-31 17:33:00,68.7,67.3,30.02,SSE,155,3.0,7.0,95,0.07,,,0.31,134.0,meteohub,2013-05-31 21:33:00,
2013-05-31 17:38:00,69.1,67.6,30.02,SSE,157,3.0,7.0,95,0.06,,,0.31,160.0,meteohub,2013-05-31 21:38:00,
2013-05-31 17:43:00,69.3,67.5,30.02,South,188,4.0,7.0,94,0.05,,,0.31,169.0,meteohub,2013-05-31 21:43:00,
2013-05-31 17:48:00,69.4,68.0,30.02,SSE,162,2.0,7.0,95,0.06,,,0.32,156.0,meteohub,2013-05-31 21:48:00,
2013-05-31 17:53:00,69.6,68.2,30.02,SW,215,3.0,7.0,95,0.04,,,0.32,130.0,meteohub,2013-05-31 21:53:00,
2013-05-31 17:59:00,69.6,67.8,30.01,South,188,2.0,7.0,94,0.04,,,0.32,160.0,meteohub,2013-05-31 21:59:00,
2013-05-31 18:04:00,70.0,68.5,30.01,SSE,167,1.0,7.0,95,0.03,,,0.32,232.0,meteohub,2013-05-31 22:04:00,
2013-05-31 18:09:00,70.3,68.9,30.01,SW,227,2.0,6.0,95,0.02,,,0.32,299.0,meteohub,2013-05-31 22:09:00,
2013-05-31 18:14:00,70.9,69.1,30.00,SSW,199,2.0,6.0,94,0.01,,,0.32,308.0,meteohub,2013-05-31 22:14:00,
2013-05-31 18:19:00,71.8,70.0,30.00,SSW,197,2.0,8.0,94,0.01,,,0.32,274.0,meteohub,2013-05-31 22:19:00,
2013-05-31 18:24:00,72.0,69.8,30.00,South,172,4.0,8.0,93,0.01,,,0.32,288.0,meteohub,2013-05-31 22:24:00,
2013-05-31 18:29:00,72.3,70.2,30.00,SW,234,1.0,8.0,93,0.01,,,0.32,315.0,meteohub,2013-05-31 22:29:00,
2013-05-31 18:34:00,72.3,69.3,30.00,SSE,165,3.0,7.0,90,0.01,,,0.32,181.0,meteohub,2013-05-31 22:34:00,
2013-05-31 18:39:00,72.3,69.6,30.00,SSE,152,3.0,7.0,91,0.01,,,0.32,227.0,meteohub,2013-05-31 22:39:00,
2013-05-31 18:44:00,73.2,71.1,29.99,SSW,201,2.0,7.0,93,0.00,,,0.32,448.0,meteohub,2013-05-31 22:44:00,
2013-05-31 18:49:00,74.3,71.2,29.99,ESE,123,6.0,7.0,90,0.00,,,0.32,287.0,meteohub,2013-05-31 22:49:00,
2013-05-31 18:54:00,74.5,70.7,29.99,WSW,258,0.0,7.0,88,0.00,,,0.32,272.0,meteohub,2013-05-31 22:54:00,
2013-05-31 18:59:00,75.0,71.2,29.99,South,175,1.0,7.0,88,0.00,,,0.32,404.0,meteohub,2013-05-31 22:59:00,
2013-05-31 19:04:00,75.7,71.2,29.99,South,175,2.0,7.0,86,0.00,,,0.32,232.0,meteohub,2013-05-31 23:04:00,
2013-05-31 19:10:00,75.7,70.9,29.98,SSW,200,2.0,4.0,85,0.00,,,0.32,167.0,meteohub,2013-05-31 23:10:00,
2013-05-31 19:15:00,75.6,70.7,29.98,South,171,3.0,4.0,85,0.00,,,0.32,250.0,meteohub,2013-05-31 23:15:00,
2013-05-31 19:20:00,75.6,71.1,29.98,SSE,160,1.0,5.0,86,0.00,,,0.32,183.0,meteohub,2013-05-31 23:20:00,
2013-05-31 19:25:00,75.6,70.7,29.97,SSE,156,3.0,5.0,85,0.00,,,0.32,206.0,meteohub,2013-05-31 23:25:00,
2013-05-31 19:30:00,75.9,71.1,29.97,South,186,5.0,5.0,85,0.00,,,0.32,185.0,meteohub,2013-05-31 23:30:00,
2013-05-31 19:35:00,76.3,71.1,29.97,South,171,2.0,5.0,84,0.00,,,0.32,172.0,meteohub,2013-05-31 23:35:00,
2013-05-31 19:40:00,76.5,70.9,29.97,South,183,3.0,5.0,83,0.00,,,0.32,153.0,meteohub,2013-05-31 23:40:00,
2013-05-31 19:45:00,76.5,70.9,29.97,South,176,1.0,5.0,83,0.00,,,0.32,132.0,meteohub,2013-05-31 23:45:00,
2013-05-31 19:50:00,76.5,70.9,29.97,SSE,165,2.0,5.0,83,0.00,,,0.32,84.0,meteohub,2013-05-31 23:50:00,
2013-05-31 19:55:00,76.3,70.3,29.97,South,183,2.0,5.0,82,0.00,,,0.32,44.0,meteohub,2013-05-31 23:55:00,
2013-05-31 20:00:00,75.7,70.2,29.97,South,173,2.0,5.0,83,0.00,,,0.32,35.0,meteohub,2013-06-01 00:00:00,
2013-05-31 20:05:00,75.6,70.0,29.98,South,177,3.0,5.0,83,0.00,,,0.00,30.0,meteohub,2013-06-01 00:05:00,
2013-05-31 20:10:00,75.0,69.4,29.98,SSE,157,3.0,5.0,83,0.00,,,0.00,26.0,meteohub,2013-06-01 00:10:00,
2013-05-31 20:15:00,74.8,69.6,29.98,South,181,2.0,5.0,84,0.00,,,0.00,21.0,meteohub,2013-06-01 00:15:00,
2013-05-31 20:20:00,74.7,69.8,29.97,South,185,2.0,5.0,85,0.00,,,0.00,19.0,meteohub,2013-06-01 00:20:00,
2013-05-31 20:26:00,74.5,69.6,29.97,South,184,1.0,4.0,85,0.00,,,0.00,18.0,meteohub,2013-06-01 00:26:00,
2013-05-31 20:31:00,74.1,69.3,29.97,SSE,153,0.0,4.0,85,0.00,,,0.00,14.0,meteohub,2013-06-01 00:31:00,
2013-05-31 20:36:00,73.9,69.4,29.97,SE,146,2.0,4.0,86,0.00,,,0.00,12.0,meteohub,2013-06-01 00:36:00,
2013-05-31 20:41:00,73.8,69.6,29.97,SSE,154,1.0,3.0,87,0.00,,,0.00,11.0,meteohub,2013-06-01 00:41:00,
2013-05-31 20:46:00,73.4,69.3,29.97,SSE,151,3.0,3.0,87,0.00,,,0.00,7.0,meteohub,2013-06-01 00:46:00,
2013-05-31 20:51:00,73.0,69.3,29.96,SSE,151,2.0,3.0,88,0.00,,,0.00,5.0,meteohub,2013-06-01 00:51:00,
2013-05-31 20:56:00,72.9,69.1,29.97,SSE,167,1.0,5.0,88,0.00,,,0.00,5.0,meteohub,2013-06-01 00:56:00,
2013-05-31 21:01:00,72.7,68.9,29.97,SE,138,2.0,5.0,88,0.00,,,0.00,0.0,meteohub,2013-06-01 01:01:00,
2013-05-31 21:06:00,72.7,68.9,29.96,SSE,149,3.0,5.0,88,0.00,,,0.00,0.0,meteohub,2013-06-01 01:06:00,
2013-05-31 21:11:00,72.5,68.7,29.96,SSE,163,3.0,6.0,88,0.00,,,0.00,0.0,meteohub,2013-06-01 01:11:00,
2013-05-31 21:16:00,72.3,68.5,29.96,SSE,159,1.0,6.0,88,0.00,,,0.00,0.0,meteohub,2013-06-01 01:16:00,
2013-05-31 21:21:00,72.3,68.5,29.96,SSE,165,2.0,7.0,88,0.00,,,0.00,0.0,meteohub,2013-06-01 01:21:00,
2013-05-31 21:26:00,72.3,68.2,29.96,SSE,161,3.0,7.0,87,0.00,,,0.00,0.0,meteohub,2013-06-01 01:26:00,
2013-05-31 21:31:00,72.3,68.2,29.96,SSE,168,2.0,5.0,87,0.00,,,0.00,0.0,meteohub,2013-06-01 01:31:00,
2013-05-31 21:37:00,72.3,68.2,29.96,SSE,161,2.0,5.0,87,0.00,,,0.00,0.0,meteohub,2013-06-01 01:37:00,
2013-05-31 21:42:00,72.3,68.5,29.96,SSE,163,2.0,5.0,88,0.00,,,0.00,0.0,meteohub,2013-06-01 01:42:00,
2013-05-31 21:47:00,72.1,68.0,29.96,SSE,163,2.0,4.0,87,0.00,,,0.00,0.0,meteohub,2013-06-01 01:47:00,
2013-05-31 21:52:00,72.1,68.4,29.96,South,190,3.0,5.0,88,0.00,,,0.00,0.0,meteohub,2013-06-01 01:52:00,
2013-05-31 21:57:00,72.1,68.4,29.96,South,174,4.0,5.0,88,0.00,,,0.00,0.0,meteohub,2013-06-01 01:57:00,
2013-05-31 22:02:00,72.0,68.2,29.96,SSE,155,5.0,5.0,88,0.00,,,0.00,0.0,meteohub,2013-06-01 02:02:00,
2013-05-31 22:07:00,72.0,68.2,29.96,South,173,4.0,6.0,88,0.00,,,0.00,0.0,meteohub,2013-06-01 02:07:00,
2013-05-31 22:12:00,72.1,68.0,29.96,SE,146,4.0,6.0,87,0.00,,,0.00,0.0,meteohub,2013-06-01 02:12:00,
2013-05-31 22:17:00,72.1,68.0,29.96,SE,146,6.0,8.0,87,0.00,,,0.00,0.0,meteohub,2013-06-01 02:17:00,
2013-05-31 22:22:00,72.3,68.2,29.96,SSE,153,3.0,8.0,87,0.00,,,0.00,0.0,meteohub,2013-06-01 02:22:00,
2013-05-31 22:27:00,72.3,67.8,29.96,SSE,155,4.0,8.0,86,0.00,,,0.00,0.0,meteohub,2013-06-01 02:27:00,
2013-05-31 22:32:00,72.3,67.6,29.96,SSE,161,5.0,7.0,85,0.00,,,0.00,0.0,meteohub,2013-06-01 02:32:00,
2013-05-31 22:37:00,72.5,67.5,29.95,SSW,194,3.0,7.0,84,0.00,,,0.00,0.0,meteohub,2013-06-01 02:37:00,
2013-05-31 22:42:00,72.7,67.6,29.96,SSW,194,3.0,10.0,84,0.00,,,0.00,0.0,meteohub,2013-06-01 02:42:00,
2013-05-31 22:47:00,72.7,67.3,29.96,South,173,3.0,10.0,83,0.00,,,0.00,0.0,meteohub,2013-06-01 02:47:00,
2013-05-31 22:52:00,72.7,67.3,29.96,SSE,147,2.0,8.0,83,0.00,,,0.00,0.0,meteohub,2013-06-01 02:52:00,
2013-05-31 22:57:00,72.9,67.1,29.97,SSW,194,3.0,8.0,82,0.00,,,0.00,0.0,meteohub,2013-06-01 02:57:00,
2013-05-31 23:02:00,72.9,67.1,29.97,South,182,5.0,8.0,82,0.00,,,0.00,0.0,meteohub,2013-06-01 03:02:00,
2013-05-31 23:07:00,72.9,67.1,29.97,SSE,168,3.0,7.0,82,0.00,,,0.00,0.0,meteohub,2013-06-01 03:07:00,
2013-05-31 23:12:00,72.9,67.1,29.97,SSE,153,2.0,7.0,82,0.00,,,0.00,0.0,meteohub,2013-06-01 03:12:00,
2013-05-31 23:17:00,72.7,66.9,29.97,SSE,161,6.0,8.0,82,0.00,,,0.00,0.0,meteohub,2013-06-01 03:17:00,
2013-05-31 23:22:00,72.7,66.6,29.97,SSE,156,6.0,8.0,81,0.00,,,0.00,0.0,meteohub,2013-06-01 03:22:00,
2013-05-31 23:27:00,72.7,66.6,29.97,SSE,166,3.0,7.0,81,0.00,,,0.00,0.0,meteohub,2013-06-01 03:27:00,
2013-05-31 23:32:00,72.9,66.7,29.97,South,177,3.0,7.0,81,0.00,,,0.00,0.0,meteohub,2013-06-01 03:32:00,
2013-05-31 23:37:00,72.7,66.6,29.98,SSE,159,3.0,8.0,81,0.00,,,0.00,0.0,meteohub,2013-06-01 03:37:00,
2013-05-31 23:42:00,72.7,66.6,29.98,South,170,3.0,8.0,81,0.00,,,0.00,0.0,meteohub,2013-06-01 03:42:00,